Quick links : Home Page : Contact Us : Index : Site Map : Search Site : Ephemerides


(87555) 2000 QB243

Orbital Elements

The following orbital elements are taken from MPO143063
 (87555) 2000 QB243
Epoch 2008 Nov. 30.0 TT = JDT 2454800.5                 MPC
M  28.52366              (2000.0)            P               Q
n   0.00472008     Peri.  284.87393     -0.25564133     +0.96498580
a  35.1967987      Node   330.11539     -0.83549447     -0.25108742
e   0.5656178      Incl.    6.76997     -0.48641186     -0.07587828
P 209              H    8.2           G   0.15           U   1
From 25 observations at 4 oppositions, 2000-2004, mean residual 0".32.
An explanation of the orbital elements is available.

These orbital elements are also available in forms suitable for loading into a number of popular planetarium-type software programs.


Ephemeris

The following ephemeris is at intervals of five days. A daily ephemeris covering the same time interval is also available.

Personalized ephemerides for this (and other) objects may be generated using the Minor Planet & Comet Ephemeris Service.

Date    TT    R. A. (2000) Decl.     Delta      r     Elong.  Phase     V
2008 11 10    22 51.01   -05 30.4   23.345   23.768   114.1     2.2    22.2
2008 11 15    22 50.89   -05 31.2   23.436   23.778   109.1     2.3    22.2
2008 11 20    22 50.84   -05 31.6   23.529   23.788   104.0     2.3    22.2
2008 11 25    22 50.85   -05 31.6   23.623   23.797    99.0     2.3    22.2
2008 11 30    22 50.94   -05 31.1   23.719   23.807    93.9     2.4    22.2
2008 12 05    22 51.09   -05 30.3   23.816   23.817    88.9     2.4    22.2
2008 12 10    22 51.30   -05 29.0   23.912   23.827    83.9     2.4    22.2
2008 12 15    22 51.59   -05 27.4   24.007   23.837    78.9     2.3    22.2
2008 12 20    22 51.93   -05 25.3   24.101   23.847    73.9     2.3    22.3
2008 12 25    22 52.34   -05 22.9   24.193   23.857    68.9     2.2    22.3
2008 12 30    22 52.81   -05 20.1   24.283   23.867    64.0     2.1    22.3
2009 01 04    22 53.33   -05 16.9   24.369   23.877    59.0     2.0    22.3
2009 01 09    22 53.91   -05 13.3   24.451   23.887    54.1     1.9    22.3
2009 01 14    22 54.53   -05 09.5   24.529   23.897    49.1     1.8    22.3
2009 01 19    22 55.20   -05 05.3   24.602   23.907    44.2     1.6    22.3
2009 01 24    22 55.91   -05 00.9   24.670   23.917    39.3     1.5    22.3
2009 01 29    22 56.66   -04 56.2   24.732   23.927    34.5     1.3    22.2
 
2009 04 09    23 08.39   -03 38.8   24.905   24.066    32.5     1.3    22.3
2009 04 14    23 09.13   -03 33.6   24.867   24.076    37.2     1.4    22.3
2009 04 19    23 09.83   -03 28.6   24.824   24.086    41.9     1.6    22.3
2009 04 24    23 10.50   -03 23.9   24.776   24.096    46.6     1.7    22.3
2009 04 29    23 11.12   -03 19.4   24.723   24.106    51.2     1.9    22.3
2009 05 04    23 11.69   -03 15.1   24.666   24.116    55.9     2.0    22.3
2009 05 09    23 12.21   -03 11.2   24.605   24.126    60.6     2.1    22.3
2009 05 14    23 12.69   -03 07.5   24.540   24.135    65.3     2.2    22.3
2009 05 19    23 13.10   -03 04.2   24.472   24.145    70.0     2.3    22.3
2009 05 24    23 13.46   -03 01.2   24.402   24.155    74.7     2.3    22.3
2009 05 29    23 13.77   -02 58.6   24.330   24.165    79.4     2.4    22.3
2009 06 03    23 14.01   -02 56.4   24.257   24.175    84.2     2.4    22.3
2009 06 08    23 14.19   -02 54.5   24.183   24.185    88.9     2.4    22.3
2009 06 13    23 14.31   -02 53.0   24.110   24.195    93.6     2.4    22.3
2009 06 18    23 14.36   -02 51.9   24.036   24.205    98.4     2.4    22.3
2009 06 23    23 14.36   -02 51.3   23.963   24.215   103.1     2.3    22.3
2009 06 28    23 14.29   -02 51.0   23.893   24.225   107.9     2.3    22.3
2009 07 03    23 14.16   -02 51.0   23.824   24.235   112.7     2.2    22.3
2009 07 08    23 13.98   -02 51.5   23.758   24.245   117.5     2.1    22.2
2009 07 13    23 13.73   -02 52.4   23.695   24.255   122.4     2.0    22.2
2009 07 18    23 13.44   -02 53.6   23.637   24.265   127.2     1.9    22.2
2009 07 23    23 13.09   -02 55.2   23.582   24.275   132.1     1.8    22.2
2009 07 28    23 12.69   -02 57.1   23.533   24.284   136.9     1.6    22.2
2009 08 02    23 12.24   -02 59.3   23.489   24.294   141.8     1.5    22.2
2009 08 07    23 11.76   -03 01.8   23.450   24.304   146.7     1.3    22.2
2009 08 12    23 11.24   -03 04.5   23.418   24.314   151.6     1.1    22.1
2009 08 17    23 10.69   -03 07.5   23.392   24.324   156.6     0.9    22.1
2009 08 22    23 10.11   -03 10.7   23.373   24.334   161.5     0.8    22.1
2009 08 27    23 09.51   -03 14.0   23.361   24.344   166.5     0.6    22.1
2009 09 01    23 08.89   -03 17.5   23.356   24.354   171.4     0.4    22.1
2009 09 06    23 08.27   -03 21.1   23.358   24.364   176.1     0.2    22.0
2009 09 11    23 07.65   -03 24.7   23.368   24.374   177.4     0.1    22.0
2009 09 16    23 07.03   -03 28.3   23.385   24.384   173.0     0.3    22.1
2009 09 21    23 06.41   -03 32.0   23.410   24.394   168.1     0.5    22.1
2009 09 26    23 05.82   -03 35.5   23.442   24.404   163.1     0.7    22.1
2009 10 01    23 05.24   -03 39.0   23.482   24.414   158.1     0.9    22.1
2009 10 06    23 04.70   -03 42.3   23.528   24.423   153.0     1.1    22.2
2009 10 11    23 04.18   -03 45.5   23.581   24.433   148.0     1.2    22.2
2009 10 16    23 03.71   -03 48.4   23.641   24.443   142.9     1.4    22.2
2009 10 21    23 03.28   -03 51.1   23.706   24.453   137.8     1.6    22.2
2009 10 26    23 02.89   -03 53.6   23.777   24.463   132.7     1.7    22.2
2009 10 31    23 02.56   -03 55.7   23.854   24.473   127.7     1.8    22.3
2009 11 05    23 02.28   -03 57.5   23.935   24.483   122.6     2.0    22.3
2009 11 10    23 02.07   -03 59.0   24.020   24.493   117.5     2.1    22.3
2009 11 15    23 01.91   -04 00.1   24.108   24.503   112.5     2.1    22.3
2009 11 20    23 01.81   -04 00.9   24.199   24.513   107.4     2.2    22.3
2009 11 25    23 01.78   -04 01.2   24.293   24.523   102.3     2.3    22.3
2009 11 30    23 01.82   -04 01.2   24.388   24.533    97.3     2.3    22.3
2009 12 05    23 01.92   -04 00.7   24.484   24.542    92.2     2.3    22.4
2009 12 10    23 02.08   -03 59.9   24.581   24.552    87.2     2.3    22.4
2009 12 15    23 02.31   -03 58.6   24.677   24.562    82.2     2.3    22.4

Back to Observable Distant Minor Planets

MPC

Valid HTML 4.01!